When you browse on this site, cookies collect data to enhance your experience and personalize the content and advertising you see.
Visit our Privacy Policy to learn more. By continuing to use the site, you agree to this use of cookies and data.

Météo par heure à Shvarcevskiy

Ce jour, 9 Juillet, Jeudi

Heure Température Précipitation Vent Pression Humidité
00:00 +16°C° 0.9 mm 6 m/s 734 mmHg 96%
01:00 +15°C° 1.5 mm 5 m/s 734 mmHg 96%
02:00 +15°C° 1.5 mm 5 m/s 735 mmHg 96%
03:00 +14°C° 0 mm 3 m/s 735 mmHg 92%
04:00 +13°C° 0.2 mm 4 m/s 735 mmHg 92%
05:00 +13°C° 0.2 mm 4 m/s 736 mmHg 93%
06:00 +12°C° 0.2 mm 5 m/s 736 mmHg 93%
07:00 +13°C° 0 mm 5 m/s 736 mmHg 90%
08:00 +14°C° 0 mm 5 m/s 737 mmHg 88%
09:00 +15°C° 0 mm 5 m/s 738 mmHg 85%
10:00 +16°C° 0 mm 5 m/s 738 mmHg 80%
11:00 +17°C° 0 mm 5 m/s 739 mmHg 76%
12:00 +19°C° 0 mm 4 m/s 739 mmHg 71%
13:00 +20°C° 0 mm 4 m/s 739 mmHg 70%
14:00 +20°C° 0 mm 4 m/s 739 mmHg 70%
15:00 +20°C° 0 mm 3 m/s 740 mmHg 68%
16:00 +20°C° 0 mm 3 m/s 740 mmHg 69%
17:00 +20°C° 0 mm 3 m/s 740 mmHg 70%
18:00 +20°C° 0 mm 3 m/s 740 mmHg 71%
19:00 +18°C° 0 mm 3 m/s 740 mmHg 76%
20:00 +17°C° 0 mm 2 m/s 740 mmHg 80%
21:00 +15°C° 0 mm 2 m/s 741 mmHg 85%
22:00 +14°C° 0 mm 2 m/s 741 mmHg 87%
23:00 +14°C° 0 mm 2 m/s 741 mmHg 89%

Demain, 10 Juillet, Vendredi

Heure Température Précipitation Vent Pression Humidité
00:00 +12°C° 0 mm 3 m/s 742 mmHg 90%
01:00 +13°C° 0 mm 2 m/s 742 mmHg 91%
02:00 +12°C° 0 mm 2 m/s 742 mmHg 91%
03:00 +12°C° 0 mm 2 m/s 743 mmHg 91%
04:00 +12°C° 0 mm 2 m/s 743 mmHg 90%
05:00 +12°C° 0 mm 2 m/s 743 mmHg 89%
06:00 +13°C° 0 mm 2 m/s 744 mmHg 88%
07:00 +14°C° 0 mm 2 m/s 744 mmHg 82%
08:00 +16°C° 0 mm 2 m/s 744 mmHg 76%
09:00 +17°C° 0 mm 2 m/s 744 mmHg 70%
10:00 +18°C° 0 mm 2 m/s 744 mmHg 66%
11:00 +19°C° 0 mm 2 m/s 744 mmHg 62%
12:00 +20°C° 0 mm 2 m/s 745 mmHg 59%
13:00 +21°C° 0 mm 2 m/s 744 mmHg 58%
14:00 +21°C° 0 mm 2 m/s 744 mmHg 58%
15:00 +21°C° 0 mm 3 m/s 744 mmHg 57%
16:00 +21°C° 0 mm 2 m/s 744 mmHg 61%
17:00 +21°C° 0 mm 2 m/s 744 mmHg 64%
18:00 +21°C° 0 mm 2 m/s 744 mmHg 67%
19:00 +19°C° 0 mm 2 m/s 744 mmHg 71%
20:00 +18°C° 0 mm 2 m/s 744 mmHg 74%
21:00 +16°C° 0 mm 2 m/s 745 mmHg 78%
22:00 +16°C° 0 mm 2 m/s 745 mmHg 79%
23:00 +15°C° 0 mm 2 m/s 745 mmHg 80%

Après-demain, 11 Juillet, Samedi

Heure Température Précipitation Vent Pression Humidité
00:00 +14°C° 0 mm 3 m/s 745 mmHg 81%
01:00 +14°C° 0 mm 3 m/s 745 mmHg 82%
02:00 +13°C° 0 mm 3 m/s 745 mmHg 82%
03:00 +13°C° 0 mm 3 m/s 745 mmHg 83%
04:00 +13°C° 0 mm 3 m/s 745 mmHg 83%
05:00 +14°C° 0 mm 3 m/s 745 mmHg 84%
06:00 +14°C° 0 mm 3 m/s 745 mmHg 84%
07:00 +17°C° 0 mm 4 m/s 745 mmHg 81%
08:00 +18°C° 0 mm 4 m/s 745 mmHg 77%
09:00 +20°C° 0 mm 5 m/s 745 mmHg 74%
10:00 +21°C° 0 mm 5 m/s 745 mmHg 73%
11:00 +22°C° 0 mm 5 m/s 745 mmHg 71%
12:00 +23°C° 0 mm 5 m/s 745 mmHg 70%
13:00 +25°C° 0 mm 5 m/s 745 mmHg 70%
14:00 +25°C° 0 mm 5 m/s 745 mmHg 70%
15:00 +26°C° 0 mm 5 m/s 744 mmHg 70%
16:00 +26°C° 0 mm 5 m/s 744 mmHg 73%
17:00 +25°C° 0 mm 4 m/s 744 mmHg 75%
18:00 +25°C° 0 mm 4 m/s 743 mmHg 78%
19:00 +23°C° 0 mm 4 m/s 743 mmHg 82%
20:00 +22°C° 0 mm 3 m/s 743 mmHg 86%
21:00 +20°C° 0 mm 3 m/s 744 mmHg 90%
22:00 +20°C° 0 mm 3 m/s 743 mmHg 91%
23:00 +19°C° 0 mm 3 m/s 743 mmHg 91%

12 Juillet, Dimanche

Heure Température Précipitation Vent Pression Humidité
00:00 +19°C° 0 mm 3 m/s 743 mmHg 91%
01:00 +18°C° 0 mm 3 m/s 743 mmHg 91%
02:00 +18°C° 0 mm 3 m/s 743 mmHg 91%
03:00 +18°C° 0 mm 3 m/s 743 mmHg 91%
04:00 +18°C° 0 mm 3 m/s 743 mmHg 90%
05:00 +18°C° 0 mm 3 m/s 743 mmHg 90%
06:00 +18°C° 0 mm 2 m/s 743 mmHg 89%
07:00 +20°C° 0 mm 2 m/s 743 mmHg 85%
08:00 +21°C° 0 mm 2 m/s 743 mmHg 80%
09:00 +24°C° 0 mm 2 m/s 743 mmHg 76%
10:00 +25°C° 0 mm 2 m/s 743 mmHg 73%
11:00 +26°C° 0 mm 3 m/s 743 mmHg 69%
12:00 +27°C° 0 mm 3 m/s 742 mmHg 66%
13:00 +27°C° 0 mm 3 m/s 742 mmHg 65%
14:00 +27°C° 0 mm 3 m/s 742 mmHg 64%
15:00 +28°C° 0 mm 3 m/s 742 mmHg 63%
16:00 +27°C° 0 mm 2 m/s 741 mmHg 65%
17:00 +27°C° 0 mm 2 m/s 741 mmHg 67%
18:00 +27°C° 0 mm 2 m/s 741 mmHg 69%
19:00 +25°C° 0 mm 2 m/s 740 mmHg 73%
20:00 +24°C° 0 mm 1 m/s 740 mmHg 76%
21:00 +22°C° 0 mm 1 m/s 740 mmHg 79%
22:00 +21°C° 0 mm 1 m/s 740 mmHg 81%
23:00 +20°C° 0 mm 1 m/s 740 mmHg 82%

13 Juillet, Lundi

Heure Température Précipitation Vent Pression Humidité
00:00 +19°C° 0 mm 2 m/s 740 mmHg 83%
01:00 +19°C° 0 mm 1 m/s 739 mmHg 83%
02:00 +19°C° 0 mm 1 m/s 739 mmHg 83%
03:00 +18°C° 0 mm 1 m/s 739 mmHg 83%
04:00 +19°C° 0 mm 1 m/s 739 mmHg 82%
05:00 +19°C° 0 mm 1 m/s 738 mmHg 82%
06:00 +19°C° 0 mm 1 m/s 738 mmHg 82%
07:00 +20°C° 0 mm 2 m/s 738 mmHg 78%
08:00 +21°C° 0 mm 2 m/s 738 mmHg 75%
09:00 +24°C° 0 mm 2 m/s 738 mmHg 72%
10:00 +25°C° 0 mm 3 m/s 738 mmHg 70%
11:00 +25°C° 0 mm 3 m/s 737 mmHg 68%
12:00 +26°C° 0 mm 3 m/s 737 mmHg 67%
13:00 +26°C° 0.1 mm 3 m/s 737 mmHg 67%
14:00 +26°C° 0.1 mm 3 m/s 737 mmHg 67%
15:00 +26°C° 0.1 mm 2 m/s 737 mmHg 67%
16:00 +26°C° 1.3 mm 2 m/s 736 mmHg 73%
17:00 +25°C° 1.3 mm 2 m/s 736 mmHg 78%
18:00 +24°C° 1.3 mm 2 m/s 735 mmHg 84%
19:00 +23°C° 0.8 mm 2 m/s 735 mmHg 85%
20:00 +22°C° 0.8 mm 1 m/s 735 mmHg 86%
21:00 +21°C° 0.8 mm 1 m/s 735 mmHg 87%
22:00 +21°C° 0.2 mm 1 m/s 735 mmHg 88%
23:00 +21°C° 0.2 mm 1 m/s 734 mmHg 90%

14 Juillet, Mardi

Heure Température Précipitation Vent Pression Humidité
00:00 +20°C° 0.2 mm 1 m/s 734 mmHg 91%
01:00 +19°C° 0.2 mm 2 m/s 734 mmHg 92%
02:00 +19°C° 0.2 mm 2 m/s 733 mmHg 93%
03:00 +19°C° 0.2 mm 2 m/s 733 mmHg 94%
04:00 +19°C° 0.4 mm 3 m/s 733 mmHg 95%
05:00 +19°C° 0.4 mm 3 m/s 733 mmHg 96%
06:00 +19°C° 0.4 mm 3 m/s 732 mmHg 97%
07:00 +19°C° 0.2 mm 4 m/s 732 mmHg 96%
08:00 +20°C° 0.2 mm 4 m/s 732 mmHg 94%
09:00 +20°C° 0.2 mm 4 m/s 732 mmHg 93%
10:00 +21°C° 0.1 mm 4 m/s 732 mmHg 91%
11:00 +22°C° 0.1 mm 3 m/s 731 mmHg 89%
12:00 +22°C° 0.1 mm 3 m/s 731 mmHg 87%
13:00 +24°C° 0.6 mm 3 m/s 731 mmHg 83%
14:00 +25°C° 0.6 mm 3 m/s 731 mmHg 79%
15:00 +26°C° 0.6 mm 3 m/s 731 mmHg 75%
16:00 +26°C° 0.6 mm 3 m/s 730 mmHg 78%
17:00 +25°C° 0.6 mm 3 m/s 730 mmHg 80%
18:00 +25°C° 0.6 mm 3 m/s 730 mmHg 83%
19:00 +24°C° 0.2 mm 3 m/s 730 mmHg 86%
20:00 +21°C° 0.2 mm 3 m/s 730 mmHg 90%
21:00 +20°C° 0.2 mm 3 m/s 730 mmHg 93%
22:00 +19°C° 0.1 mm 3 m/s 730 mmHg 94%
23:00 +18°C° 0.1 mm 2 m/s 731 mmHg 95%
Voir plus